Flag for China Weather past 2 weeks in Nanjing, Jiangsu, China

Now
79 °F

Passing clouds.


Feels Like: 81 °F
Forecast: 68 / 78 °F
Wind: 10 mph from South

Location: Nanjing

Current Time: Jul 4, 2015 at 5:31:29 PM

Latest Report: Jul 4, 2015 at 4:00 PM


Visibility: N/A

Pressure: 29.77 "Hg

Humidity: 61%

Dew point: 64 °F

Location of NanjingLocation

Historic Weather in Nanjing — Graph

°F

Nanjing temperature yesterday

Maximum temperature yesterday: 86 °F (at 1:00 PM)
Minimum temperature yesterday: 72 °F (at 5:00 AM)
Average temperature yesterday: 79 °F

Past Weeks' High & Low Weather Summary

 TemperatureHumidityPressure
High95 °F (Jun 25, 1:00 PM)100% (Jun 20, 3:00 AM)29.83 "Hg (Jun 20, 3:00 AM)
Low70 °F (Jun 20, 3:00 AM)52% (Jun 20, 1:00 PM)29.45 "Hg (Jun 25, 2:00 PM)
Average76 °F88%29.65 "Hg
* Reported Jun 19 4:00 PM — Jul 4 4:00 PM, Nanjing, Weather by CustomWeather, © 2015

Note: Actual official high and low records may vary slightly from our data, if they occured in-between our weather recording intervals... More about our weather records

Advertising

Nanjing weather history for previous 24 hours

 ConditionsComfort  
Time TempWeatherWind HumidityBarometerVisibility
4:00 PM
Sat, Jul 4
79 °FPassing clouds.10 mph61%29.77 "HgN/A
3:00 PM81 °FPassing clouds.6 mph62%29.80 "Hg4 mi
2:00 PM81 °FPassing clouds.6 mph62%29.80 "Hg5 mi
1:00 PM81 °FPassing clouds.8 mph62%29.80 "Hg4 mi
12:00 PM81 °FScattered clouds.8 mph62%29.80 "Hg4 mi
11:00 AM81 °FClear.8 mph62%29.80 "Hg5 mi
10:00 AM81 °FClear.6 mph62%29.80 "Hg6 mi
9:00 AM75 °FScattered clouds.6 mph69%29.80 "Hg5 mi
8:00 AM73 °FScattered clouds.8 mph74%29.80 "Hg4 mi
7:00 AM73 °FFog.6 mph74%29.77 "Hg2 mi
6:00 AM72 °FLight rain. Fog.6 mph88%29.77 "Hg2 mi
5:00 AM72 °FLight rain. Fog.3 mph88%29.77 "Hg2 mi
4:00 AM72 °FLight rain. Passing clouds.3 mph73%29.74 "HgN/A
3:00 AM73 °FLight rain. Passing clouds.10 mph65%29.74 "HgN/A
2:00 AM73 °FLight rain. Fog.3 mph94%29.74 "Hg1 mi
1:00 AM73 °FLight rain. Fog.6 mph94%29.74 "Hg1 mi
12:00 AM73 °FLight rain. Fog.3 mph94%29.74 "Hg2 mi
11:00 PM
Fri, Jul 3
73 °FLight rain. Fog.3 mph94%29.74 "Hg2 mi
10:00 PM75 °FFog.6 mph83%29.74 "Hg2 mi
9:00 PM77 °FLight rain. Fog.10 mph83%29.74 "Hg2 mi
8:00 PM81 °FFog.10 mph79%29.71 "Hg1 mi
7:00 PM81 °FFog.3 mph79%29.71 "Hg1 mi
6:00 PM82 °FFog.1 mph79%29.68 "Hg1 mi
5:00 PM82 °FFog.6 mph79%29.65 "Hg1 mi
Weather by CustomWeather, © 2015

See weather overviewHow to use our weather pages